Temp
70 71 69 71 71 72 72 72 70 72 71 71 72 72 72 72 72 71 72 80 81 82 81 82 82 81 82 82 82 82 82 82 81 81 80 80 81 80 80 80 80 80 80
70 71 70 70 71 71 72 71 70 70 71 72 72 73 73 71 72 71 72 76 81 81 81 82 81 82 82 82 81 82 81 81 81 81 81 80 80 80 80 80 80 80 79
71 71 70 70 71 72 72 71 71 71 71 72 72 72 71 73 71 71 71 71 77 81 81 80 81 82 82 82 82 82 81 81 80 80 80 80 80 80 80 80 80 80 79
72 70 70 70 71 71 71 71 71 69 69 70 70 70 71 72 72 72 71 71 71 75 80 81 81 81 82 82 82 82 81 80 80 80 80 80 80 80 80 80 80 79 79
73 71 71 71 71 71 71 71 70 69 69 69 71 70 71 71 72 73 71 71 71 73 72 80 80 80 82 83 82 82 81 80 80 80 80 80 80 80 79 79 79 79 79
73 71 71 71 71 72 70 70 70 70 69 70 73 71 70 71 71 71 70 72 70 72 72 73 76 77 80 82 82 82 81 81 80 80 79 79 79 79 79 78 78 78 78
72 71 70 71 72 72 72 71 70 70 69 70 69 68 69 71 71 71 70 70 70 72 71 71 71 72 77 80 81 81 81 81 81 80 79 79 79 78 78 78 77 78 78
71 72 71 71 71 71 71 71 71 68 69 70 68 67 64 67 70 71 71 70 70 75 74 73 71 71 71 73 75 80 80 81 81 81 80 79 78 78 78 77 77 77 77
72 71 71 71 71 71 70 71 71 69 68 69 70 68 62 63 66 69 70 70 70 71 75 76 73 73 72 72 76 78 79 78 80 81 81 80 79 78 78 77 77 77 77
72 73 72 72 71 71 71 71 72 70 70 67 69 70 69 67 63 62 67 69 70 70 72 72 74 74 74 74 76 77 78 78 79 80 81 81 79 79 79 78 77 77 77
72 73 72 72 72 71 72 71 71 70 70 69 67 67 68 68 67 64 63 65 68 70 70 73 74 74 76 76 75 76 77 77 77 78 79 80 80 80 80 80 79 78 78
70 72 73 72 72 71 71 71 71 71 70 70 69 69 68 66 66 65 63 64 66 68 71 72 73 74 75 75 77 77 77 77 77 77 77 78 79 80 81 81 81 80 80
70 70 71 71 71 71 71 71 70 70 70 70 70 68 69 68 68 67 66 64 64 66 68 70 73 75 76 75 76 78 78 76 75 75 75 76 77 78 79 80 80 81 81
69 71 71 72 72 72 72 72 70 71 71 70 71 70 69 69 69 69 66 65 63 63 66 68 70 72 76 76 77 77 77 74 74 73 72 73 74 75 76 77 77 78 79
71 72 72 71 71 71 71 71 71 71 71 71 71 71 70 70 70 69 68 68 66 62 63 67 68 72 76 76 77 79 77 77 73 73 72 71 72 73 74 74 75 75 75
71 72 71 70 71 71 71 71 71 71 71 71 71 71 70 70 70 71 70 69 67 66 63 66 69 71 72 76 75 73 76 76 74 72 71 71 71 72 72 72 73 73 73
71 71 70 71 71 70 71 71 71 71 71 71 72 71 71 71 70 70 71 70 68 66 64 66 68 70 70 70 73 73 74 73 72 71 71 70 69 70 70 71 71 71 71
72 71 69 70 72 72 71 71 71 72 71 71 71 71 71 73 70 70 70 71 71 70 68 67 68 69 69 70 71 71 75 78 73 73 70 69 69 69 68 68 68 68 68
72 73 72 70 70 71 71 72 72 71 72 72 71 71 71 71 70 71 70 70 70 70 69 68 68 68 69 70 70 71 72 73 75 74 69 68 68 68 67 66 65 64 63
72 71 70 69 70 70 71 71 72 72 71 71 71 72 71 71 71 70 70 70 70 69 69 67 67 67 68 69 69 68 68 69 68 73 72 71 71 71 70 68 66 65 62
69 68 66 65 66 68 69 68 70 71 72 70 70 69 68 70 70 69 68 66 68 67 67 67 66 66 65 65 66 66 66 65 66 66 67 69 69 69 69 68 70 70 65
66 65 64 64 64 67 67 69 68 68 69 68 66 65 67 68 68 67 68 68 68 66 64 64 63 64 64 64 65 65 64 63 63 66 65 65 66 66 67 67 67 66 64
64 63 62 62 61 60 64 66 69 66 66 65 64 64 67 67 65 64 65 66 66 66 67 65 63 63 63 64 64 61 62 61 61 63 63 62 62 63 65 68 65 65 64
64 62 61 60 59 59 62 64 67 64 64 64 64 63 62 60 60 62 61 61 61 62 62 65 64 64 65 64 62 62 60 60 60 61 61 59 61 62 63 65 65 65 63
63 61 61 60 60 58 61 62 62 62 62 62 62 61 60 58 61 62 58 57 58 59 64 62 63 64 64 64 63 60 59 58 57 59 61 60 60 60 61 62 64 64 62
65 62 60 60 61 59 59 61 61 61 59 58 58 58 62 58 59 59 56 56 56 56 56 58 60 62 62 62 64 61 60 58 57 56 62 58 58 58 57 60 61 61 61
MSLP
1016.82 1016.84 1016.91 1017.03 1017.10 1017.17 1017.33 1017.45 1017.59 1017.55 1017.62 1017.97 1018.05 1018.14 1018.23 1018.36 1018.59 1018.81 1019.11 1019.15 1019.26 1019.43 1019.85 1020.05 1020.30 1020.60 1020.95 1021.24 1021.42 1021.73 1021.93 1022.13 1022.39 1022.70 1022.99 1023.10 1023.26 1023.39 1023.48 1023.58 1023.67 1023.79 1023.88
1016.42 1016.63 1016.80 1016.89 1016.80 1016.96 1017.06 1017.23 1017.28 1017.29 1017.33 1017.63 1017.83 1017.88 1018.08 1018.26 1018.49 1018.75 1018.87 1019.06 1019.17 1019.53 1019.73 1019.88 1020.47 1020.53 1020.86 1021.05 1021.42 1021.63 1021.91 1022.24 1022.54 1022.75 1022.91 1023.14 1023.32 1023.44 1023.57 1023.63 1023.71 1023.81 1023.91
1016.26 1016.46 1016.60 1016.76 1016.51 1016.70 1016.87 1016.96 1016.98 1017.07 1017.34 1017.40 1017.69 1017.64 1017.97 1018.07 1018.36 1018.57 1018.80 1019.10 1019.17 1019.51 1019.78 1020.38 1020.38 1020.51 1020.73 1021.02 1021.26 1021.57 1021.88 1022.23 1022.51 1022.77 1022.96 1023.14 1023.33 1023.49 1023.58 1023.67 1023.73 1023.76 1023.87
1016.02 1016.31 1016.43 1016.56 1016.38 1016.48 1016.64 1016.83 1016.96 1017.18 1017.32 1017.35 1017.55 1017.75 1017.72 1017.69 1018.09 1018.31 1018.60 1018.97 1019.23 1019.44 1019.58 1019.84 1020.12 1020.44 1020.64 1020.87 1021.13 1021.45 1021.82 1022.14 1022.40 1022.70 1022.93 1023.09 1023.31 1023.44 1023.56 1023.65 1023.69 1023.74 1023.82
1015.51 1015.99 1016.00 1015.99 1016.18 1016.26 1016.52 1016.68 1016.83 1016.95 1017.19 1017.34 1017.38 1017.44 1017.53 1017.63 1017.67 1017.98 1018.47 1018.76 1019.05 1019.21 1019.44 1019.62 1019.87 1020.21 1020.44 1020.63 1020.93 1021.27 1021.66 1021.95 1022.17 1022.44 1022.65 1022.86 1023.10 1023.28 1023.45 1023.56 1023.61 1023.61 1023.70
1015.17 1015.62 1015.74 1015.71 1015.80 1016.08 1016.19 1016.24 1016.54 1016.77 1016.88 1017.01 1017.16 1017.28 1017.46 1017.46 1017.48 1017.93 1018.18 1018.49 1018.88 1019.11 1019.36 1019.63 1019.83 1020.06 1020.32 1020.44 1020.75 1021.05 1021.40 1021.71 1021.93 1022.24 1022.45 1022.71 1022.94 1023.08 1023.23 1023.38 1023.48 1023.49 1023.58
1014.93 1015.21 1015.52 1015.55 1015.37 1015.69 1015.86 1016.04 1016.25 1016.48 1016.88 1017.06 1017.23 1017.73 1017.67 1017.55 1017.63 1017.88 1018.00 1018.29 1018.63 1018.88 1019.20 1019.51 1019.79 1020.04 1020.20 1020.39 1020.45 1020.73 1021.04 1021.42 1021.71 1022.00 1022.23 1022.52 1022.74 1022.90 1023.03 1023.20 1023.24 1023.24 1023.29
1014.70 1014.88 1015.01 1015.21 1015.37 1015.57 1015.82 1015.76 1015.84 1016.30 1016.52 1016.83 1017.04 1017.56 1017.68 1017.75 1017.57 1017.78 1018.00 1018.27 1018.49 1018.53 1018.85 1019.24 1019.61 1019.89 1020.09 1020.27 1020.39 1020.46 1020.73 1020.99 1021.35 1021.75 1022.01 1022.19 1022.36 1022.58 1022.76 1022.91 1023.03 1023.13 1023.18
1014.18 1014.44 1014.56 1014.75 1015.01 1015.27 1015.40 1015.33 1015.47 1015.89 1016.30 1016.58 1016.48 1016.69 1017.30 1017.28 1017.45 1017.76 1017.84 1018.08 1018.30 1018.45 1018.38 1018.70 1019.23 1019.52 1019.77 1020.01 1020.22 1020.30 1020.39 1020.69 1020.94 1021.18 1021.47 1021.75 1021.99 1022.19 1022.36 1022.53 1022.63 1022.68 1022.75
1014.01 1013.98 1014.04 1014.18 1014.51 1014.82 1014.92 1014.92 1015.14 1015.51 1015.93 1016.23 1016.39 1016.38 1016.53 1016.69 1017.14 1017.77 1017.73 1017.81 1018.04 1018.24 1018.33 1018.50 1018.71 1019.01 1019.28 1019.55 1019.74 1019.93 1020.05 1020.25 1020.48 1020.72 1020.93 1021.18 1021.48 1021.76 1021.97 1022.12 1022.26 1022.34 1022.38
1013.65 1013.57 1013.63 1013.50 1013.92 1014.28 1014.38 1014.57 1014.70 1015.18 1015.45 1015.71 1015.94 1016.12 1016.43 1016.59 1016.73 1017.02 1017.54 1017.67 1017.81 1017.78 1017.92 1018.00 1018.08 1018.37 1018.62 1018.90 1019.17 1019.32 1019.50 1019.72 1019.92 1020.21 1020.47 1020.71 1020.92 1021.13 1021.36 1021.54 1021.65 1021.77 1021.84
1013.41 1013.29 1013.16 1013.24 1013.42 1013.75 1013.90 1013.91 1014.23 1014.64 1014.90 1015.24 1015.48 1015.77 1015.93 1016.29 1016.46 1016.63 1017.05 1017.21 1017.19 1017.26 1017.33 1017.54 1017.61 1017.75 1017.99 1018.25 1018.43 1018.60 1018.81 1019.08 1019.35 1019.68 1019.95 1020.16 1020.36 1020.54 1020.66 1020.79 1020.94 1021.09 1021.21
1013.11 1012.98 1013.00 1013.08 1013.09 1013.26 1013.49 1013.63 1013.84 1014.12 1014.44 1014.88 1015.12 1015.42 1015.51 1015.64 1015.67 1015.97 1016.35 1016.73 1016.90 1017.04 1017.03 1016.93 1016.95 1017.03 1017.27 1017.56 1017.71 1017.90 1018.11 1018.47 1018.74 1018.98 1019.25 1019.52 1019.74 1019.93 1020.09 1020.16 1020.24 1020.30 1020.29
1012.73 1012.94 1012.99 1012.79 1012.31 1012.59 1013.21 1013.31 1013.48 1013.71 1014.03 1014.41 1014.60 1014.86 1015.10 1015.24 1015.27 1015.50 1015.85 1016.32 1016.87 1017.01 1016.90 1016.38 1016.33 1016.40 1016.47 1016.68 1016.86 1017.16 1017.55 1017.81 1018.12 1018.33 1018.57 1018.80 1018.98 1019.14 1019.29 1019.35 1019.48 1019.61 1019.72
1012.36 1012.63 1012.56 1012.60 1012.61 1012.73 1012.85 1013.09 1013.14 1013.43 1013.67 1013.98 1014.12 1014.42 1014.76 1014.93 1015.16 1015.35 1015.57 1015.66 1015.99 1016.67 1016.65 1016.09 1016.06 1015.64 1015.66 1016.04 1016.11 1016.47 1016.76 1016.93 1017.27 1017.57 1017.85 1018.11 1018.29 1018.46 1018.61 1018.75 1018.87 1019.00 1019.04
1011.94 1012.04 1012.21 1012.52 1012.54 1012.74 1012.59 1012.62 1012.85 1013.15 1013.42 1013.64 1013.81 1014.09 1014.28 1014.59 1014.92 1015.06 1015.09 1015.22 1015.58 1015.85 1016.19 1015.86 1015.70 1015.42 1015.47 1015.50 1015.67 1016.16 1016.23 1016.37 1016.60 1016.91 1017.12 1017.31 1017.57 1017.81 1018.04 1018.15 1018.13 1018.22 1018.34
1011.42 1011.56 1011.84 1012.27 1012.40 1012.46 1012.37 1012.61 1012.82 1013.00 1013.29 1013.48 1013.58 1013.91 1014.05 1014.27 1014.60 1014.74 1014.82 1014.97 1015.34 1015.56 1016.10 1015.92 1015.76 1015.40 1015.32 1015.38 1015.51 1015.85 1016.02 1016.17 1016.26 1016.36 1016.43 1016.77 1017.14 1017.26 1017.34 1017.37 1017.42 1017.42 1017.50
1011.06 1011.24 1011.59 1012.14 1012.34 1012.41 1012.38 1012.49 1012.56 1012.78 1013.09 1013.34 1013.52 1013.77 1013.90 1014.05 1014.35 1014.51 1014.73 1014.86 1014.96 1015.10 1015.42 1015.62 1015.59 1015.42 1015.35 1015.30 1015.38 1015.54 1015.52 1015.49 1015.60 1015.62 1015.79 1016.07 1016.27 1016.54 1016.63 1016.62 1016.71 1016.74 1016.81
1010.93 1011.17 1011.64 1012.04 1012.16 1012.19 1012.36 1012.32 1012.58 1012.66 1012.91 1013.00 1013.11 1013.30 1013.38 1013.76 1014.26 1014.41 1014.46 1014.52 1014.75 1014.96 1015.23 1015.37 1015.47 1015.36 1015.37 1015.43 1015.46 1015.41 1015.23 1015.25 1015.27 1015.26 1015.57 1015.83 1016.10 1016.41 1016.55 1016.62 1016.54 1016.39 1016.42
1010.93 1011.19 1011.57 1011.85 1011.94 1012.12 1012.28 1012.47 1012.57 1012.67 1012.88 1012.91 1013.06 1013.35 1013.49 1013.62 1013.86 1014.20 1014.38 1014.30 1014.39 1014.76 1015.13 1015.48 1015.61 1015.59 1015.61 1015.56 1015.60 1015.78 1015.85 1015.86 1015.79 1015.58 1015.57 1015.79 1015.91 1015.84 1015.84 1015.89 1015.82 1015.71 1015.76
1011.06 1011.44 1011.83 1012.07 1012.20 1012.29 1012.45 1012.55 1012.64 1012.78 1013.01 1013.34 1013.47 1013.62 1013.83 1013.94 1014.11 1014.25 1014.47 1014.54 1014.44 1014.70 1014.94 1015.35 1015.69 1015.73 1015.76 1015.80 1015.87 1015.99 1016.09 1016.19 1016.36 1016.34 1016.24 1016.20 1016.15 1016.06 1016.01 1015.90 1015.69 1015.51 1015.31
1011.24 1011.72 1012.18 1012.36 1012.56 1012.80 1012.87 1012.66 1012.78 1012.93 1013.00 1013.19 1013.63 1014.02 1014.38 1014.47 1014.73 1014.76 1014.91 1014.75 1014.64 1014.78 1014.96 1015.36 1015.81 1015.88 1016.03 1016.02 1016.13 1016.33 1016.45 1016.70 1016.84 1016.51 1016.72 1016.68 1016.50 1016.50 1016.32 1016.11 1016.01 1015.84 1015.55
1011.37 1011.97 1012.46 1012.78 1013.13 1013.22 1013.19 1013.10 1013.02 1013.02 1013.17 1013.50 1013.80 1014.29 1014.63 1015.05 1015.25 1015.33 1015.26 1015.13 1015.02 1014.96 1014.92 1015.13 1015.49 1015.74 1015.94 1015.95 1016.27 1016.63 1016.80 1016.95 1016.99 1016.90 1016.87 1016.94 1016.79 1016.94 1016.66 1016.39 1016.17 1016.01 1015.74
1011.53 1012.05 1012.43 1012.77 1013.16 1013.48 1013.43 1013.36 1013.39 1013.43 1013.54 1013.70 1013.95 1014.30 1014.70 1015.19 1015.38 1015.44 1015.51 1015.63 1015.50 1015.29 1015.10 1015.08 1015.20 1015.33 1015.45 1015.79 1016.15 1016.40 1016.57 1016.87 1017.07 1017.03 1016.81 1017.06 1016.90 1016.82 1016.57 1016.46 1016.36 1016.14 1015.95
1011.49 1011.89 1012.29 1012.57 1012.92 1013.35 1013.33 1013.37 1013.51 1013.65 1013.99 1014.34 1014.60 1014.85 1014.99 1015.15 1015.35 1015.43 1015.68 1015.87 1015.77 1015.64 1015.28 1015.27 1015.17 1015.23 1015.33 1015.59 1015.96 1016.48 1016.82 1017.04 1017.18 1017.06 1016.94 1017.04 1017.17 1017.08 1016.89 1016.70 1016.38 1016.09 1015.97
1010.79 1011.43 1012.09 1012.44 1012.76 1013.21 1013.32 1013.29 1013.49 1013.91 1014.51 1014.85 1015.03 1015.13 1015.27 1015.22 1015.37 1015.47 1015.69 1016.06 1015.99 1015.98 1015.76 1015.62 1015.71 1015.74 1015.64 1015.70 1015.83 1016.00 1016.37 1016.90 1017.20 1017.39 1017.00 1017.20 1017.33 1017.47 1017.42 1017.01 1016.81 1016.59 1016.23
Wind_Speed
4 3 4 4 4 3 3 3 4 4 5 5 4 4 5 5 5 3 3 12 12 12 12 13 12 12 12 12 11 11 11 11 10 10 11 10 10 10 9 8 7 7 6
4 4 3 4 4 3 3 4 4 4 4 4 5 5 4 4 4 5 4 5 15 14 15 12 14 13 13 12 11 12 12 10 10 10 11 11 10 10 9 8 7 6 4
5 4 4 4 4 3 4 3 3 3 3 3 4 4 4 4 4 4 4 3 7 16 15 16 14 14 14 13 12 12 11 10 10 10 11 11 10 10 9 9 8 7 6
6 5 4 4 4 3 2 2 3 3 3 3 3 4 4 3 5 4 5 4 4 4 11 16 15 14 14 13 14 13 12 11 11 11 11 11 11 10 10 9 8 7 7
6 5 4 4 4 3 3 3 3 3 3 3 3 4 4 3 3 4 5 5 5 4 3 12 14 14 16 15 14 14 14 14 13 12 13 12 12 11 10 9 9 8 7
6 4 3 5 4 3 3 3 4 3 2 3 3 3 2 2 4 5 5 5 5 5 5 5 7 7 14 15 14 13 15 14 14 14 12 12 12 11 11 11 10 8 8
5 5 4 5 4 4 3 4 3 4 4 2 3 1 2 4 4 5 6 4 5 5 5 5 4 3 6 15 14 14 15 16 15 15 14 13 12 12 12 12 11 12 11
7 7 6 5 5 3 4 5 4 2 2 4 3 2 1 0 2 5 6 7 7 7 7 7 6 6 5 4 6 14 15 15 17 17 16 14 14 14 13 12 11 12 12
5 5 6 5 5 4 4 4 4 5 4 2 4 4 2 4 2 2 5 7 7 6 7 8 8 8 7 6 9 11 16 15 16 18 17 16 15 15 15 14 14 13 13
5 6 7 7 6 4 5 4 4 3 3 4 2 3 1 3 3 2 1 5 6 8 9 7 8 10 9 8 13 15 15 16 18 18 18 17 17 17 17 17 16 15 15
5 5 6 6 4 5 6 6 4 5 4 3 3 2 2 1 1 3 3 3 3 6 7 8 8 8 10 10 9 12 18 17 18 19 19 19 19 19 21 19 18 18 17
4 5 5 4 4 5 6 5 5 6 5 4 3 3 3 3 3 3 2 2 4 4 6 7 7 7 7 8 12 17 19 19 19 19 20 20 21 21 22 21 20 20 20
3 5 4 4 4 4 5 4 5 6 5 4 5 4 3 4 3 3 3 2 3 3 3 4 7 8 7 7 9 17 18 17 18 18 18 19 20 21 21 21 21 21 21
4 4 5 6 5 4 4 4 3 4 5 4 6 4 3 3 3 2 4 4 2 1 2 5 4 7 8 8 12 16 9 15 16 17 16 18 19 20 20 20 20 20 20
4 6 5 3 4 4 3 3 4 5 5 5 5 5 3 3 2 3 3 3 4 4 5 3 3 7 8 6 10 10 10 14 17 17 16 15 16 17 18 18 18 18 18
6 5 5 5 5 5 4 3 2 4 5 4 3 4 3 3 3 3 3 3 2 3 2 4 3 2 5 5 6 6 8 9 12 14 15 15 15 16 16 17 18 18 19
5 5 6 6 5 5 5 3 2 3 5 5 3 4 5 3 2 2 1 1 3 3 3 3 3 2 2 5 4 4 5 5 5 13 15 13 12 14 15 16 16 17 18
5 7 6 5 5 4 4 4 3 2 5 6 5 5 5 3 5 4 3 4 2 3 3 3 1 1 2 2 3 4 5 6 5 9 13 12 14 13 15 16 15 16 16
5 5 7 7 5 5 4 4 4 3 5 6 6 6 6 5 4 3 3 3 2 2 2 2 2 0 1 0 0 1 1 0 3 4 6 6 7 8 9 10 12 12 11
5 4 4 5 5 4 3 3 4 3 2 3 4 4 3 4 5 5 4 4 3 4 3 3 2 1 1 1 1 1 1 1 2 3 6 4 2 2 2 6 7 7 9
5 6 6 6 6 5 3 3 3 4 5 6 6 6 6 7 7 5 3 2 3 2 2 3 2 1 1 1 1 1 2 1 3 3 2 3 3 3 3 4 4 6 7
7 7 6 6 6 3 5 8 6 5 5 6 7 6 5 7 7 8 5 5 1 3 3 3 2 2 2 2 1 1 2 2 1 3 3 3 3 3 4 4 8 9 10
7 6 6 5 5 4 4 3 5 4 6 6 7 6 5 4 4 4 6 6 7 5 3 4 4 3 3 4 3 2 1 2 2 1 2 2 3 2 2 4 9 8 11
8 7 6 6 6 3 3 5 5 3 4 5 6 6 6 5 2 2 2 3 1 3 4 1 3 4 4 5 3 3 3 1 1 1 1 2 1 1 1 2 7 9 11
5 5 5 7 7 5 5 5 5 5 5 5 5 5 5 6 3 3 2 1 0 1 4 7 5 2 5 6 6 4 2 2 0 1 3 2 1 2 1 1 3 8 8
9 7 6 5 6 5 3 5 5 4 5 4 3 4 5 5 5 4 3 2 3 1 2 3 3 4 3 4 7 3 4 2 2 2 2 2 1 1 3 2 2 4 4
Wind_Direction
214 218 210 195 217 202 201 194 211 228 176 192 221 228 183 181 185 194 201 214 208 178 201 206 192 179 185 185 179 179 169 169 175 170 159 157 154 144 144 138 142 132 129
198 197 190 204 199 198 201 204 209 208 199 175 207 215 186 182 198 188 190 222 195 192 212 207 196 190 193 188 186 185 173 173 180 179 171 162 165 163 164 161 159 151 130
198 194 200 208 218 188 217 208 227 187 188 188 227 178 168 186 196 187 172 208 184 202 212 203 203 195 193 193 192 190 181 185 182 191 178 176 178 183 184 185 186 180 183
186 191 197 211 213 180 183 210 205 198 198 194 179 186 199 195 176 178 167 173 174 193 205 206 200 197 197 202 203 197 189 193 192 186 193 186 192 200 204 206 210 211 205
185 196 203 211 211 182 185 196 212 179 178 193 203 191 186 197 185 167 168 177 180 191 179 203 197 198 203 203 203 201 200 203 194 198 201 197 203 205 220 215 223 221 227
190 195 213 229 207 216 207 187 200 199 170 188 205 155 187 199 169 174 180 190 172 188 179 195 198 197 209 213 206 210 203 209 204 204 212 209 208 211 213 218 227 230 235
179 194 216 229 214 225 211 198 184 192 204 138 101 305 234 198 193 184 182 185 177 193 180 183 182 181 210 223 204 208 216 212 215 214 212 217 220 221 225 223 224 226 228
193 209 206 211 219 215 222 208 178 168 176 172 142 122 193 222 211 192 181 196 199 195 196 191 185 189 199 210 223 217 220 223 219 223 225 223 219 224 230 235 235 239 243
217 213 219 214 213 202 216 205 184 172 185 170 205 152 138 211 136 152 193 194 188 196 200 202 198 203 203 208 222 230 223 223 228 229 227 228 229 229 231 234 236 240 243
243 230 218 220 209 197 210 200 183 179 166 188 205 217 246 162 160 136 171 187 192 200 203 203 203 206 206 211 217 222 227 222 225 230 234 233 230 232 235 239 241 242 243
245 253 241 229 216 199 212 192 196 190 193 163 180 141 171 192 132 134 179 178 189 203 205 204 204 206 211 213 219 224 222 223 224 228 234 237 237 236 241 242 243 244 246
236 254 257 239 224 207 211 192 194 194 192 189 179 191 172 172 183 156 145 183 193 206 196 203 204 208 209 209 216 219 220 221 223 226 231 236 238 239 243 247 247 248 250
226 256 254 227 212 207 217 201 186 191 180 189 192 193 212 198 172 155 138 149 174 216 183 204 210 208 206 206 216 220 222 221 222 223 225 231 236 240 243 245 247 249 251
222 237 226 227 179 172 209 201 180 183 182 206 201 204 187 212 185 174 149 142 111 221 234 222 191 202 204 204 214 214 218 212 220 223 223 225 231 236 241 245 250 251 252
226 227 210 206 161 162 136 203 183 194 191 198 211 192 189 180 189 189 194 181 151 176 225 254 218 210 212 204 215 209 212 215 216 221 223 225 228 234 239 243 247 249 253
207 191 195 210 190 187 168 72 185 184 186 195 201 200 211 166 188 199 193 184 170 160 187 207 238 209 203 216 213 200 217 218 214 217 223 228 231 233 239 242 242 244 246
198 186 177 188 181 182 149 145 225 192 195 199 212 204 230 180 184 207 188 148 183 146 183 295 222 250 179 199 180 203 209 219 218 221 223 230 231 235 241 243 243 243 246
179 178 179 174 185 185 170 170 254 214 199 198 205 210 231 189 195 203 189 200 197 158 146 200 224 311 213 239 212 170 214 216 217 213 216 206 220 230 239 243 242 246 243
183 177 180 184 200 192 199 187 219 252 230 210 198 202 216 183 170 184 197 188 172 151 166 166 208 257 321 92 62 220 143 269 251 196 218 197 248 257 259 259 252 250 248
167 144 143 141 140 136 155 183 203 190 200 216 179 187 200 173 166 161 183 199 180 170 160 160 218 231 116 347 72 171 229 331 355 8 50 82 94 31 305 285 291 273 246
133 122 116 104 109 106 98 92 137 151 143 118 91 84 74 81 85 102 133 164 143 136 130 146 154 149 143 103 146 13 83 38 52 38 25 6 359 355 359 336 317 325 312
128 128 130 130 118 90 120 135 137 140 130 124 117 103 103 99 78 87 83 68 141 144 136 132 139 141 136 111 66 61 87 63 28 12 22 344 5 15 19 32 29 36 41
139 136 128 117 105 87 65 79 123 153 146 140 136 134 119 91 89 86 56 50 43 54 125 152 155 182 166 178 130 97 127 146 194 336 50 329 10 40 2 19 25 38 38
149 148 139 133 125 91 56 90 106 129 126 140 145 139 132 132 86 103 89 97 81 69 27 186 170 183 181 156 140 167 165 148 44 283 155 169 335 300 352 8 14 27 38
140 147 153 148 145 147 109 97 90 122 113 107 107 121 139 135 115 98 94 153 193 76 12 43 61 100 140 167 155 126 147 115 304 275 358 109 300 324 354 297 355 13 36
156 148 143 146 150 145 119 124 123 134 125 127 111 114 126 126 111 80 123 166 179 227 13 19 31 34 86 138 159 173 150 130 115 354 254 101 345 41 327 301 356 4 6